Location: ??????
(55.2000°N, 38.3000°E)
Time: 16:50:41
(UTC+00:00)

Okean 1 Rocket - Pass Details

Date: 15 November 2025
Orbit: 599 x 628 km, 82.5° (Epoch: 14 December)

Event Time Altitude Azimuth Distance (km) Brightness Sun altitude
Rises 03:01:05 0° 348° (NNW) 2,882 6.3 -16.6°
Reaches altitude 10° 03:03:19 10° 350° (N) 1,969 5.4 -16.3°
Maximum altitude 03:07:41 79° 77° (ENE) 621 3.1 -15.6°
Drops below altitude 10° 03:11:59 10° 165° (SSE) 1,942 5.9 -15.0°
Sets 03:14:10 0° 167° (SSE) 2,838 6.8 -14.7°
